Tracking 21473 objects as of 20-Sep-2020
HD Live streaming from Space Station
objects crossing your sky now

THOR ABLESTAR DEB

Track THOR ABLESTAR DEB now!
10-day predictions


NORAD ID: 350
Int'l Code: 1961-015DQ
Perigee: 733.5 km
Apogee: 926.5 km
Inclination: 66.9 °
Period: 101.4 minutes
Semi major axis: 7200 km
RCS: 0.1129 m2 (medium)
Launch date: June 29, 1961
Source: United States (US)
Launch site: AIR FORCE EASTERN TEST RANGE (AFETR)

Note: This is SATELLITE DEBRIS
aabbcc
Your satellite tracking list
Your tracking list is empty




NASA's NSSDC Master Catalog

Two Line Element Set (TLE):
1   350U 61015DQ  20264.28180419 -.00000047 +00000-0 +15117-4 0  9999
2   350 066.9129 190.9152 0134012 295.2281 063.4972 14.20747440065072
Source of the keplerian elements: AFSPC